Time,TemperatureF,DewpointF,PressureIn,WindDirection,WindDirectionDegrees,WindSpeedMPH,WindSpeedGustMPH,Humidity,HourlyPrecipIn,Conditions,Clouds,dailyrainin,SoftwareType,DateUTC
2013-03-01 00:04:00,24.4,17.9,30.20,NNE,23,5.5,8.5,76,0.00,,,0.00,WUHU216HW,2013-03-01 06:04:00,
2013-03-01 00:09:00,24.2,17.7,30.21,North,0,1.5,7.3,76,0.00,,,0.00,WUHU216HW,2013-03-01 06:09:00,
2013-03-01 00:14:00,24.2,17.7,30.21,North,0,6.4,7.8,76,0.00,,,0.00,WUHU216HW,2013-03-01 06:14:00,
2013-03-01 00:19:00,24.2,17.7,30.21,North,0,8.0,8.0,76,0.00,,,0.00,WUHU216HW,2013-03-01 06:19:00,
2013-03-01 00:24:00,24.2,17.7,30.21,North,0,0.6,8.0,76,0.00,,,0.00,WUHU216HW,2013-03-01 06:24:00,
2013-03-01 00:29:00,24.2,17.7,30.21,North,0,3.3,8.2,76,0.00,,,0.00,WUHU216HW,2013-03-01 06:29:00,
2013-03-01 00:34:00,24.2,18.0,30.21,North,0,0.0,8.7,77,0.00,,,0.00,WUHU216HW,2013-03-01 06:34:00,
2013-03-01 00:39:00,24.2,18.0,30.22,North,0,1.1,8.7,77,0.00,,,0.00,WUHU216HW,2013-03-01 06:39:00,
2013-03-01 00:44:00,24.2,18.0,30.21,North,0,7.1,7.1,77,0.00,,,0.00,WUHU216HW,2013-03-01 06:44:00,
2013-03-01 00:49:00,24.2,18.0,30.21,North,0,1.5,7.6,77,0.00,,,0.00,WUHU216HW,2013-03-01 06:49:00,
2013-03-01 00:54:00,24.2,18.0,30.21,NNE,23,0.0,7.6,77,0.00,,,0.00,WUHU216HW,2013-03-01 06:54:00,
2013-03-01 00:59:00,24.0,17.9,30.21,North,0,5.5,9.6,77,0.00,,,0.00,WUHU216HW,2013-03-01 06:59:00,
2013-03-01 01:04:00,24.0,18.2,30.21,North,0,5.5,9.6,78,0.00,,,0.00,WUHU216HW,2013-03-01 07:04:00,
2013-03-01 01:10:00,24.0,17.9,30.22,North,0,1.7,6.7,77,0.00,,,0.00,WUHU216HW,2013-03-01 07:10:00,
2013-03-01 01:15:00,24.0,18.2,30.21,North,0,6.7,8.7,77,0.00,,,0.00,WUHU216HW,2013-03-01 07:15:00,
2013-03-01 01:20:00,24.0,17.9,30.22,NNE,23,8.7,9.8,77,0.00,,,0.00,WUHU216HW,2013-03-01 07:20:00,
2013-03-01 01:25:00,24.0,17.9,30.22,North,0,0.0,9.8,77,0.00,,,0.00,WUHU216HW,2013-03-01 07:25:00,
2013-03-01 01:30:00,24.0,17.9,30.22,North,0,3.8,8.5,77,0.00,,,0.00,WUHU216HW,2013-03-01 07:30:00,
2013-03-01 01:35:00,24.0,18.2,30.22,North,0,2.4,8.5,78,0.00,,,0.00,WUHU216HW,2013-03-01 07:35:00,
2013-03-01 01:40:00,24.0,18.2,30.22,North,0,1.1,4.4,78,0.00,,,0.00,WUHU216HW,2013-03-01 07:40:00,
2013-03-01 01:45:00,24.0,18.2,30.22,NNW,338,4.6,4.6,78,0.00,,,0.00,WUHU216HW,2013-03-01 07:45:00,
2013-03-01 01:50:00,24.0,18.2,30.22,North,0,3.5,10.9,78,0.00,,,0.00,WUHU216HW,2013-03-01 07:50:00,
2013-03-01 01:55:00,24.0,18.2,30.22,NNE,23,1.7,10.9,78,0.00,,,0.00,WUHU216HW,2013-03-01 07:55:00,
2013-03-01 02:00:00,24.0,18.2,30.21,North,0,0.0,8.9,78,0.00,,,0.00,WUHU216HW,2013-03-01 08:00:00,
2013-03-01 02:05:00,24.0,18.2,30.21,North,0,0.0,1.7,78,0.00,,,0.00,WUHU216HW,2013-03-01 08:05:00,
2013-03-01 02:10:00,24.0,18.2,30.21,North,0,1.5,5.3,78,0.00,,,0.00,WUHU216HW,2013-03-01 08:10:00,
2013-03-01 02:15:00,24.0,18.2,30.22,North,0,1.1,7.6,78,0.00,,,0.00,WUHU216HW,2013-03-01 08:15:00,
2013-03-01 02:20:00,24.0,18.2,30.21,North,0,7.1,7.6,78,0.00,,,0.00,WUHU216HW,2013-03-01 08:20:00,
2013-03-01 02:26:00,24.0,18.2,30.21,North,0,3.3,7.1,78,0.00,,,0.00,WUHU216HW,2013-03-01 08:26:00,
2013-03-01 02:31:00,23.9,18.0,30.21,North,0,0.0,6.4,78,0.00,,,0.00,WUHU216HW,2013-03-01 08:31:00,
2013-03-01 02:36:00,24.0,18.2,30.21,North,0,0.0,4.2,78,0.00,,,0.00,WUHU216HW,2013-03-01 08:36:00,
2013-03-01 02:41:00,24.0,18.2,30.21,North,0,0.0,4.2,78,0.00,,,0.00,WUHU216HW,2013-03-01 08:41:00,
2013-03-01 02:46:00,24.0,18.2,30.21,North,0,0.0,0.4,78,0.00,,,0.00,WUHU216HW,2013-03-01 08:46:00,
2013-03-01 02:51:00,24.0,18.2,30.21,NNW,338,6.9,7.6,78,0.00,,,0.00,WUHU216HW,2013-03-01 08:51:00,
2013-03-01 02:56:00,24.0,18.2,30.21,North,0,0.0,7.6,78,0.00,,,0.00,WUHU216HW,2013-03-01 08:56:00,
2013-03-01 03:01:00,24.0,18.2,30.21,North,0,0.0,6.9,78,0.00,,,0.00,WUHU216HW,2013-03-01 09:01:00,
2013-03-01 03:06:00,24.0,18.2,30.21,NNE,23,2.6,2.6,78,0.00,,,0.00,WUHU216HW,2013-03-01 09:06:00,
2013-03-01 03:11:00,24.0,18.2,30.21,NNE,23,0.4,5.5,78,0.00,,,0.00,WUHU216HW,2013-03-01 09:11:00,
2013-03-01 03:16:00,24.0,18.2,30.21,NNE,23,1.7,5.5,78,0.00,,,0.00,WUHU216HW,2013-03-01 09:16:00,
2013-03-01 03:21:00,23.9,18.0,30.21,North,0,0.0,1.7,77,0.00,,,0.00,WUHU216HW,2013-03-01 09:21:00,
2013-03-01 03:26:00,23.9,17.7,30.21,North,0,2.2,6.9,77,0.00,,,0.00,WUHU216HW,2013-03-01 09:26:00,
2013-03-01 03:31:00,23.9,17.7,30.21,North,0,2.6,6.9,77,0.00,,,0.00,WUHU216HW,2013-03-01 09:31:00,
2013-03-01 03:36:00,23.9,17.7,30.21,North,0,5.1,7.1,77,0.00,,,0.00,WUHU216HW,2013-03-01 09:36:00,
2013-03-01 03:41:00,23.7,17.5,30.21,North,0,2.6,7.8,77,0.00,,,0.00,WUHU216HW,2013-03-01 09:41:00,
2013-03-01 03:46:00,23.7,17.5,30.21,North,0,0.2,7.8,77,0.00,,,0.00,WUHU216HW,2013-03-01 09:46:00,
2013-03-01 03:52:00,23.7,17.5,30.21,North,0,3.5,3.8,77,0.00,,,0.00,WUHU216HW,2013-03-01 09:52:00,
2013-03-01 03:57:00,23.7,17.5,30.21,North,0,5.5,9.1,77,0.00,,,0.00,WUHU216HW,2013-03-01 09:57:00,
2013-03-01 04:02:00,23.7,17.5,30.22,North,0,0.0,9.1,77,0.00,,,0.00,WUHU216HW,2013-03-01 10:02:00,
2013-03-01 04:07:00,23.7,17.5,30.21,North,0,3.1,6.7,77,0.00,,,0.00,WUHU216HW,2013-03-01 10:07:00,
2013-03-01 04:12:00,23.7,17.5,30.22,North,0,0.8,6.0,77,0.00,,,0.00,WUHU216HW,2013-03-01 10:12:00,
2013-03-01 04:17:00,23.5,17.0,30.21,North,0,1.5,7.3,76,0.00,,,0.00,WUHU216HW,2013-03-01 10:17:00,
2013-03-01 04:22:00,23.5,17.0,30.21,North,0,0.8,7.3,76,0.00,,,0.00,WUHU216HW,2013-03-01 10:22:00,
2013-03-01 04:27:00,23.5,17.0,30.22,North,0,8.0,8.0,76,0.00,,,0.00,WUHU216HW,2013-03-01 10:27:00,
2013-03-01 04:32:00,23.3,16.5,30.21,North,0,2.9,8.0,75,0.00,,,0.00,WUHU216HW,2013-03-01 10:32:00,
2013-03-01 04:37:00,23.1,16.4,30.21,North,0,1.1,8.0,75,0.00,,,0.00,WUHU216HW,2013-03-01 10:37:00,
2013-03-01 04:42:00,23.1,16.4,30.21,North,0,3.8,7.1,75,0.00,,,0.00,WUHU216HW,2013-03-01 10:42:00,
2013-03-01 04:47:00,23.1,16.4,30.21,North,0,5.1,7.1,75,0.00,,,0.00,WUHU216HW,2013-03-01 10:47:00,
2013-03-01 04:53:00,23.0,16.2,30.22,North,0,0.0,6.9,75,0.00,,,0.00,WUHU216HW,2013-03-01 10:53:00,
2013-03-01 04:58:00,22.8,16.0,30.21,North,0,6.7,8.0,75,0.00,,,0.00,WUHU216HW,2013-03-01 10:58:00,
2013-03-01 05:03:00,22.8,16.0,30.21,NNW,338,10.0,10.0,75,0.00,,,0.00,WUHU216HW,2013-03-01 11:03:00,
2013-03-01 05:08:00,22.8,16.0,30.21,North,0,2.0,10.0,75,0.00,,,0.00,WUHU216HW,2013-03-01 11:08:00,
2013-03-01 05:13:00,22.6,15.8,30.21,North,0,6.0,7.6,75,0.00,,,0.00,WUHU216HW,2013-03-01 11:13:00,
2013-03-01 05:18:00,22.6,15.8,30.21,North,0,6.9,7.6,75,0.00,,,0.00,WUHU216HW,2013-03-01 11:18:00,
2013-03-01 05:23:00,22.6,15.8,30.22,North,0,2.2,8.2,75,0.00,,,0.00,WUHU216HW,2013-03-01 11:23:00,
2013-03-01 05:28:00,22.6,15.8,30.22,North,0,6.2,8.2,75,0.00,,,0.00,WUHU216HW,2013-03-01 11:28:00,
2013-03-01 05:33:00,22.6,15.8,30.22,NNW,338,3.5,9.3,75,0.00,,,0.00,WUHU216HW,2013-03-01 11:33:00,
2013-03-01 05:38:00,22.6,15.8,30.22,NNW,338,1.5,9.3,75,0.00,,,0.00,WUHU216HW,2013-03-01 11:38:00,
2013-03-01 05:43:00,22.6,15.8,30.22,North,0,0.0,7.3,76,0.00,,,0.00,WUHU216HW,2013-03-01 11:43:00,
2013-03-01 05:48:00,22.6,15.8,30.22,NNW,338,3.1,3.1,75,0.00,,,0.00,WUHU216HW,2013-03-01 11:48:00,
2013-03-01 05:53:00,22.6,15.8,30.22,North,0,0.0,3.1,75,0.00,,,0.00,WUHU216HW,2013-03-01 11:53:00,
2013-03-01 05:58:00,22.6,15.8,30.22,North,0,3.3,3.3,76,0.00,,,0.00,WUHU216HW,2013-03-01 11:58:00,
2013-03-01 06:03:00,22.6,15.8,30.22,North,0,0.0,3.8,76,0.00,,,0.00,WUHU216HW,2013-03-01 12:03:00,
2013-03-01 06:08:00,22.6,16.1,30.22,North,0,0.0,4.2,76,0.00,,,0.00,WUHU216HW,2013-03-01 12:08:00,
2013-03-01 06:13:00,22.6,16.1,30.23,North,0,0.0,4.2,76,0.00,,,0.00,WUHU216HW,2013-03-01 12:13:00,
2013-03-01 06:19:00,22.6,16.1,30.23,North,0,0.0,3.3,76,0.00,,,0.00,WUHU216HW,2013-03-01 12:19:00,
2013-03-01 06:24:00,22.6,16.1,30.23,NNW,338,0.0,2.6,76,0.00,,,0.00,WUHU216HW,2013-03-01 12:24:00,
2013-03-01 06:29:00,22.6,16.1,30.23,NNE,23,1.3,8.9,76,0.00,,,0.00,WUHU216HW,2013-03-01 12:29:00,
2013-03-01 06:34:00,22.6,16.1,30.23,North,0,0.0,8.9,76,0.00,,,0.00,WUHU216HW,2013-03-01 12:34:00,
2013-03-01 06:39:00,22.6,16.5,30.24,North,0,0.0,4.6,77,0.00,,,0.00,WUHU216HW,2013-03-01 12:39:00,
2013-03-01 06:44:00,22.6,16.5,30.23,North,0,4.2,4.2,77,0.00,,,0.00,WUHU216HW,2013-03-01 12:44:00,
2013-03-01 06:49:00,22.6,16.5,30.24,North,0,0.0,4.2,77,0.00,,,0.00,WUHU216HW,2013-03-01 12:49:00,
2013-03-01 06:54:00,22.6,16.5,30.24,NNW,338,0.0,4.4,77,0.00,,,0.00,WUHU216HW,2013-03-01 12:54:00,
2013-03-01 06:59:00,22.6,16.5,30.24,North,0,1.1,4.4,77,0.00,,,0.00,WUHU216HW,2013-03-01 12:59:00,
2013-03-01 07:04:00,22.6,16.5,30.24,NNW,338,6.7,6.7,77,0.00,,,0.00,WUHU216HW,2013-03-01 13:04:00,
2013-03-01 07:09:00,22.6,16.5,30.24,North,0,3.1,6.7,77,0.00,,,0.00,WUHU216HW,2013-03-01 13:09:00,
2013-03-01 07:14:00,22.6,16.5,30.24,North,0,0.2,6.2,77,0.00,,,0.00,WUHU216HW,2013-03-01 13:14:00,
2013-03-01 07:19:00,22.6,16.5,30.24,North,0,2.6,6.2,77,0.00,,,0.00,WUHU216HW,2013-03-01 13:19:00,
2013-03-01 07:24:00,22.8,16.6,30.25,North,0,2.0,4.0,77,0.00,,,0.00,WUHU216HW,2013-03-01 13:24:00,
2013-03-01 07:29:00,22.8,16.6,30.24,North,0,0.8,7.3,77,0.00,,,0.00,WUHU216HW,2013-03-01 13:29:00,
2013-03-01 07:34:00,22.8,16.6,30.25,North,0,0.0,7.3,77,0.00,,,0.00,WUHU216HW,2013-03-01 13:34:00,
2013-03-01 07:39:00,22.8,16.6,30.25,North,0,6.0,6.0,77,0.00,,,0.00,WUHU216HW,2013-03-01 13:39:00,
2013-03-01 07:45:00,22.8,16.6,30.25,North,0,3.3,6.0,77,0.00,,,0.00,WUHU216HW,2013-03-01 13:45:00,
2013-03-01 07:50:00,22.8,16.6,30.25,North,0,4.0,6.0,77,0.00,,,0.00,WUHU216HW,2013-03-01 13:50:00,
2013-03-01 07:55:00,23.0,16.8,30.25,North,0,1.3,8.0,77,0.00,,,0.00,WUHU216HW,2013-03-01 13:55:00,
2013-03-01 08:00:00,23.1,17.0,30.25,NNW,338,0.0,8.0,77,0.00,,,0.00,WUHU216HW,2013-03-01 14:00:00,
2013-03-01 08:05:00,23.1,17.0,30.25,North,0,0.0,1.7,76,0.00,,,0.00,WUHU216HW,2013-03-01 14:05:00,
2013-03-01 08:10:00,23.1,16.7,30.25,NNW,338,1.1,6.9,76,0.00,,,0.00,WUHU216HW,2013-03-01 14:10:00,
2013-03-01 08:15:00,23.1,17.0,30.25,North,0,4.2,6.9,77,0.00,,,0.00,WUHU216HW,2013-03-01 14:15:00,
2013-03-01 08:20:00,23.1,16.7,30.25,North,0,2.4,6.0,76,0.00,,,0.00,WUHU216HW,2013-03-01 14:20:00,
2013-03-01 08:25:00,23.3,17.2,30.26,North,0,1.5,6.0,77,0.00,,,0.00,WUHU216HW,2013-03-01 14:25:00,
2013-03-01 08:30:00,23.3,17.2,30.26,NNW,338,1.5,4.9,77,0.00,,,0.00,WUHU216HW,2013-03-01 14:30:00,
2013-03-01 08:35:00,23.5,17.3,30.27,North,0,0.0,6.0,77,0.00,,,0.00,WUHU216HW,2013-03-01 14:35:00,
2013-03-01 08:40:00,23.5,17.3,30.26,North,0,0.0,6.0,77,0.00,,,0.00,WUHU216HW,2013-03-01 14:40:00,
2013-03-01 08:45:00,23.5,17.3,30.26,North,0,0.0,0.0,77,0.00,,,0.00,WUHU216HW,2013-03-01 14:45:00,
2013-03-01 08:50:00,23.5,17.3,30.26,North,0,2.9,5.5,77,0.00,,,0.00,WUHU216HW,2013-03-01 14:50:00,
2013-03-01 08:55:00,23.5,17.3,30.26,North,0,4.6,5.8,77,0.00,,,0.00,WUHU216HW,2013-03-01 14:55:00,
2013-03-01 09:00:00,23.7,17.2,30.27,North,0,2.6,5.8,76,0.00,,,0.00,WUHU216HW,2013-03-01 15:00:00,
2013-03-01 09:05:00,23.7,17.2,30.27,North,0,1.1,4.6,76,0.00,,,0.00,WUHU216HW,2013-03-01 15:05:00,
2013-03-01 09:11:00,23.7,17.2,30.27,NNW,338,2.4,2.6,77,0.00,,,0.00,WUHU216HW,2013-03-01 15:11:00,
2013-03-01 09:16:00,23.9,17.7,30.27,North,0,7.3,7.3,77,0.00,,,0.00,WUHU216HW,2013-03-01 15:16:00,
2013-03-01 09:21:00,23.9,17.4,30.27,North,0,7.3,7.3,76,0.00,,,0.00,WUHU216HW,2013-03-01 15:21:00,
2013-03-01 09:26:00,23.9,17.4,30.27,NNW,338,0.2,7.3,77,0.00,,,0.00,WUHU216HW,2013-03-01 15:26:00,
2013-03-01 09:31:00,24.0,17.9,30.27,North,0,0.0,7.3,77,0.00,,,0.00,WUHU216HW,2013-03-01 15:31:00,
2013-03-01 09:36:00,24.0,17.9,30.27,North,0,0.0,2.0,77,0.00,,,0.00,WUHU216HW,2013-03-01 15:36:00,
2013-03-01 09:41:00,24.2,17.7,30.27,NNW,338,0.4,6.4,77,0.00,,,0.00,WUHU216HW,2013-03-01 15:41:00,
2013-03-01 09:46:00,24.4,18.2,30.27,North,0,4.4,6.4,77,0.00,,,0.00,WUHU216HW,2013-03-01 15:46:00,
2013-03-01 09:51:00,24.4,17.9,30.27,North,0,3.8,8.5,76,0.00,,,0.00,WUHU216HW,2013-03-01 15:51:00,
2013-03-01 09:56:00,24.4,17.9,30.27,North,0,0.0,8.5,77,0.00,,,0.00,WUHU216HW,2013-03-01 15:56:00,
2013-03-01 10:01:00,24.6,18.4,30.27,North,0,0.0,2.0,77,0.00,,,0.00,WUHU216HW,2013-03-01 16:01:00,
2013-03-01 10:06:00,24.9,18.7,30.27,North,0,0.0,2.9,77,0.00,,,0.00,WUHU216HW,2013-03-01 16:06:00,
2013-03-01 10:11:00,25.1,18.3,30.27,North,0,0.8,3.8,75,0.00,,,0.00,WUHU216HW,2013-03-01 16:11:00,
2013-03-01 10:16:00,25.3,18.1,30.27,NNW,338,8.0,8.0,74,0.00,,,0.00,WUHU216HW,2013-03-01 16:16:00,
2013-03-01 10:21:00,25.5,18.6,30.27,North,0,5.1,8.0,75,0.00,,,0.00,WUHU216HW,2013-03-01 16:21:00,
2013-03-01 10:26:00,25.7,18.8,30.27,North,0,0.6,8.0,75,0.00,,,0.00,WUHU216HW,2013-03-01 16:26:00,
2013-03-01 10:31:00,25.8,18.9,30.27,North,0,2.6,7.8,75,0.00,,,0.00,WUHU216HW,2013-03-01 16:31:00,
2013-03-01 10:36:00,26.4,19.1,30.27,North,0,5.5,7.6,74,0.00,,,0.00,WUHU216HW,2013-03-01 16:36:00,
2013-03-01 10:42:00,26.7,19.5,30.27,North,0,5.1,7.6,74,0.00,,,0.00,WUHU216HW,2013-03-01 16:42:00,
2013-03-01 10:47:00,26.9,19.4,30.27,North,0,6.7,7.3,73,0.00,,,0.00,WUHU216HW,2013-03-01 16:47:00,
2013-03-01 10:52:00,27.1,18.9,30.27,NNW,338,5.8,8.9,71,0.00,,,0.00,WUHU216HW,2013-03-01 16:52:00,
2013-03-01 10:57:00,27.3,19.1,30.27,North,0,5.1,8.9,71,0.00,,,0.00,WUHU216HW,2013-03-01 16:57:00,
2013-03-01 11:02:00,27.6,19.5,30.27,North,0,4.0,7.8,71,0.00,,,0.00,WUHU216HW,2013-03-01 17:02:00,
2013-03-01 11:07:00,28.0,19.2,30.27,North,0,3.5,9.3,69,0.00,,,0.00,WUHU216HW,2013-03-01 17:07:00,
2013-03-01 11:12:00,28.0,18.8,30.27,North,0,3.8,9.3,68,0.00,,,0.00,WUHU216HW,2013-03-01 17:12:00,
2013-03-01 11:17:00,28.2,19.4,30.27,NNW,338,10.2,10.2,69,0.00,,,0.00,WUHU216HW,2013-03-01 17:17:00,
2013-03-01 11:22:00,28.2,19.4,30.27,NNW,338,0.0,10.2,67,0.00,,,0.00,WUHU216HW,2013-03-01 17:22:00,
2013-03-01 11:27:00,28.5,19.0,30.27,NNE,23,8.9,8.9,67,0.00,,,0.00,WUHU216HW,2013-03-01 17:27:00,
2013-03-01 11:32:00,28.7,18.4,30.27,North,0,2.4,8.9,65,0.00,,,0.00,WUHU216HW,2013-03-01 17:32:00,
2013-03-01 11:37:00,29.1,18.4,30.27,North,0,5.3,10.0,64,0.00,,,0.00,WUHU216HW,2013-03-01 17:37:00,
2013-03-01 11:42:00,29.3,19.3,30.27,NNW,338,0.6,10.0,66,0.00,,,0.00,WUHU216HW,2013-03-01 17:42:00,
2013-03-01 11:47:00,29.4,18.7,30.27,North,0,1.3,8.5,64,0.00,,,0.00,WUHU216HW,2013-03-01 17:47:00,
2013-03-01 11:52:00,29.4,19.1,30.27,NNW,338,0.0,6.9,65,0.00,,,0.00,WUHU216HW,2013-03-01 17:52:00,
2013-03-01 11:58:00,29.4,18.7,30.27,North,0,4.4,7.1,64,0.00,,,0.00,WUHU216HW,2013-03-01 17:58:00,
2013-03-01 12:03:00,29.4,18.7,30.28,North,0,0.6,7.1,64,0.00,,,0.00,WUHU216HW,2013-03-01 18:03:00,
2013-03-01 12:08:00,29.4,18.3,30.27,North,0,3.3,7.8,63,0.00,,,0.00,WUHU216HW,2013-03-01 18:08:00,
2013-03-01 12:13:00,29.4,18.3,30.27,North,0,3.3,9.1,63,0.00,,,0.00,WUHU216HW,2013-03-01 18:13:00,
2013-03-01 12:18:00,29.8,19.0,30.27,North,0,2.6,9.1,63,0.00,,,0.00,WUHU216HW,2013-03-01 18:18:00,
2013-03-01 12:23:00,30.0,18.5,30.27,North,0,2.2,8.0,62,0.00,,,0.00,WUHU216HW,2013-03-01 18:23:00,
2013-03-01 12:28:00,30.3,18.8,30.27,North,0,1.3,8.2,62,0.00,,,0.00,WUHU216HW,2013-03-01 18:28:00,
2013-03-01 12:33:00,30.3,18.8,30.27,NNE,23,2.2,10.2,62,0.00,,,0.00,WUHU216HW,2013-03-01 18:33:00,
2013-03-01 12:38:00,30.7,19.2,30.27,North,0,2.0,10.2,62,0.00,,,0.00,WUHU216HW,2013-03-01 18:38:00,
2013-03-01 12:43:00,30.9,19.0,30.27,North,0,4.2,7.8,61,0.00,,,0.00,WUHU216HW,2013-03-01 18:43:00,
2013-03-01 12:48:00,31.1,18.8,30.27,North,0,3.3,6.0,60,0.00,,,0.00,WUHU216HW,2013-03-01 18:48:00,
2013-03-01 12:53:00,31.2,19.4,30.27,North,0,3.8,4.2,61,0.00,,,0.00,WUHU216HW,2013-03-01 18:53:00,
2013-03-01 12:58:00,31.1,19.2,30.27,North,0,0.8,11.6,61,0.00,,,0.00,WUHU216HW,2013-03-01 18:58:00,
2013-03-01 13:03:00,31.1,19.2,30.27,NNW,338,3.8,11.6,61,0.00,,,0.00,WUHU216HW,2013-03-01 19:03:00,
2013-03-01 13:08:00,31.2,19.4,30.27,North,0,7.1,8.5,61,0.00,,,0.00,WUHU216HW,2013-03-01 19:08:00,
2013-03-01 13:13:00,31.4,19.9,30.27,North,0,6.0,8.5,62,0.00,,,0.00,WUHU216HW,2013-03-01 19:13:00,
2013-03-01 13:19:00,31.6,19.7,30.26,North,0,5.8,8.5,61,0.00,,,0.00,WUHU216HW,2013-03-01 19:19:00,
2013-03-01 13:24:00,31.4,19.5,30.26,North,0,6.0,8.2,61,0.00,,,0.00,WUHU216HW,2013-03-01 19:24:00,
2013-03-01 13:29:00,31.2,19.4,30.26,North,0,5.1,8.2,61,0.00,,,0.00,WUHU216HW,2013-03-01 19:29:00,
2013-03-01 13:34:00,31.2,19.7,30.26,North,0,1.7,8.0,62,0.00,,,0.00,WUHU216HW,2013-03-01 19:34:00,
2013-03-01 13:39:00,31.6,20.1,30.26,North,0,2.9,7.3,62,0.00,,,0.00,WUHU216HW,2013-03-01 19:39:00,
2013-03-01 13:44:00,31.6,19.7,30.26,North,0,6.2,8.2,61,0.00,,,0.00,WUHU216HW,2013-03-01 19:44:00,
2013-03-01 13:49:00,31.6,20.1,30.26,North,0,6.0,8.2,62,0.00,,,0.00,WUHU216HW,2013-03-01 19:49:00,
2013-03-01 13:54:00,31.6,20.1,30.26,North,0,2.2,8.5,62,0.00,,,0.00,WUHU216HW,2013-03-01 19:54:00,
2013-03-01 13:59:00,31.4,19.5,30.26,North,0,5.5,6.7,61,0.00,,,0.00,WUHU216HW,2013-03-01 19:59:00,
2013-03-01 14:04:00,31.8,19.9,30.26,NNE,23,3.1,5.5,61,0.00,,,0.00,WUHU216HW,2013-03-01 20:04:00,
2013-03-01 14:09:00,32.3,19.6,30.26,North,0,6.2,9.3,59,0.00,,,0.00,WUHU216HW,2013-03-01 20:09:00,
2013-03-01 14:14:00,32.1,19.9,30.26,NNE,23,7.3,9.3,60,0.00,,,0.00,WUHU216HW,2013-03-01 20:14:00,
2013-03-01 14:19:00,32.1,20.2,30.26,NNW,338,3.5,8.2,61,0.00,,,0.00,WUHU216HW,2013-03-01 20:19:00,
2013-03-01 14:24:00,31.8,19.5,30.25,North,0,8.2,8.2,60,0.00,,,0.00,WUHU216HW,2013-03-01 20:24:00,
2013-03-01 14:29:00,31.8,19.5,30.26,North,0,1.3,8.2,60,0.00,,,0.00,WUHU216HW,2013-03-01 20:29:00,
2013-03-01 14:34:00,31.8,19.5,30.25,North,0,6.4,8.2,60,0.00,,,0.00,WUHU216HW,2013-03-01 20:34:00,
2013-03-01 14:39:00,31.8,19.9,30.25,North,0,6.7,8.2,61,0.00,,,0.00,WUHU216HW,2013-03-01 20:39:00,
2013-03-01 14:45:00,31.8,19.9,30.26,NE,45,1.3,8.2,61,0.00,,,0.00,WUHU216HW,2013-03-01 20:45:00,
2013-03-01 14:50:00,31.6,19.7,30.26,North,0,3.8,7.6,61,0.00,,,0.00,WUHU216HW,2013-03-01 20:50:00,
2013-03-01 14:55:00,31.6,19.7,30.26,NE,45,0.0,8.2,62,0.00,,,0.00,WUHU216HW,2013-03-01 20:55:00,
2013-03-01 15:00:00,32.0,20.1,30.26,North,0,2.0,8.2,61,0.00,,,0.00,WUHU216HW,2013-03-01 21:00:00,
2013-03-01 15:05:00,31.8,19.9,30.25,NNE,23,4.4,6.7,61,0.00,,,0.00,WUHU216HW,2013-03-01 21:05:00,
2013-03-01 15:10:00,31.2,19.0,30.26,North,0,6.9,9.3,60,0.00,,,0.00,WUHU216HW,2013-03-01 21:10:00,
2013-03-01 15:15:00,31.4,19.9,30.26,NNE,23,2.4,9.3,62,0.00,,,0.00,WUHU216HW,2013-03-01 21:15:00,
2013-03-01 15:20:00,31.6,20.1,30.26,North,0,5.3,7.1,62,0.00,,,0.00,WUHU216HW,2013-03-01 21:20:00,
2013-03-01 15:25:00,31.4,19.5,30.25,North,0,4.9,7.6,61,0.00,,,0.00,WUHU216HW,2013-03-01 21:25:00,
2013-03-01 15:30:00,31.8,20.6,30.26,North,0,5.8,7.6,63,0.00,,,0.00,WUHU216HW,2013-03-01 21:30:00,
2013-03-01 15:35:00,32.1,20.6,30.26,North,0,4.4,7.8,62,0.00,,,0.00,WUHU216HW,2013-03-01 21:35:00,
2013-03-01 15:40:00,32.1,21.0,30.26,North,0,0.8,7.8,63,0.00,,,0.00,WUHU216HW,2013-03-01 21:40:00,
2013-03-01 15:45:00,31.8,19.9,30.26,NNE,23,6.0,6.4,61,0.00,,,0.00,WUHU216HW,2013-03-01 21:45:00,
2013-03-01 15:50:00,31.6,20.1,30.27,NNE,23,2.9,7.8,62,0.00,,,0.00,WUHU216HW,2013-03-01 21:50:00,
2013-03-01 15:55:00,31.2,20.4,30.27,NNE,23,6.2,7.8,64,0.00,,,0.00,WUHU216HW,2013-03-01 21:55:00,
2013-03-01 16:00:00,31.1,19.9,30.26,North,0,3.1,6.9,63,0.00,,,0.00,WUHU216HW,2013-03-01 22:00:00,
2013-03-01 16:05:00,30.9,20.4,30.26,North,0,6.4,6.4,65,0.00,,,0.00,WUHU216HW,2013-03-01 22:05:00,
2013-03-01 16:10:00,30.9,20.1,30.27,NNE,23,0.0,7.6,65,0.00,,,0.00,WUHU216HW,2013-03-01 22:10:00,
2013-03-01 16:16:00,30.7,19.9,30.27,NNE,23,3.1,7.8,64,0.00,,,0.00,WUHU216HW,2013-03-01 22:16:00,
2013-03-01 16:21:00,30.3,19.9,30.27,North,0,1.1,7.8,65,0.00,,,0.00,WUHU216HW,2013-03-01 22:21:00,
2013-03-01 16:26:00,30.3,19.9,30.27,North,0,3.3,3.3,64,0.00,,,0.00,WUHU216HW,2013-03-01 22:26:00,
2013-03-01 16:31:00,30.0,19.6,30.27,NNE,23,1.1,7.3,65,0.00,,,0.00,WUHU216HW,2013-03-01 22:31:00,
2013-03-01 16:36:00,29.8,19.4,30.27,North,0,4.9,7.3,65,0.00,,,0.00,WUHU216HW,2013-03-01 22:36:00,
2013-03-01 16:41:00,29.1,19.1,30.28,NNW,338,7.1,7.1,66,0.00,,,0.00,WUHU216HW,2013-03-01 22:41:00,
2013-03-01 16:46:00,28.9,18.6,30.28,North,0,6.0,7.6,65,0.00,,,0.00,WUHU216HW,2013-03-01 22:46:00,
2013-03-01 16:51:00,28.7,18.4,30.28,North,0,8.2,8.2,65,0.00,,,0.00,WUHU216HW,2013-03-01 22:51:00,
2013-03-01 16:56:00,28.5,18.6,30.28,North,0,8.2,8.5,66,0.00,,,0.00,WUHU216HW,2013-03-01 22:56:00,
2013-03-01 17:01:00,28.2,18.6,30.28,NNW,338,4.0,8.5,67,0.00,,,0.00,WUHU216HW,2013-03-01 23:01:00,
2013-03-01 17:06:00,28.0,18.5,30.29,North,0,7.1,8.9,67,0.00,,,0.00,WUHU216HW,2013-03-01 23:06:00,
2013-03-01 17:11:00,27.8,18.3,30.29,North,0,6.0,8.9,67,0.00,,,0.00,WUHU216HW,2013-03-01 23:11:00,
2013-03-01 17:16:00,27.6,18.1,30.29,NNE,23,2.6,8.2,67,0.00,,,0.00,WUHU216HW,2013-03-01 23:16:00,
2013-03-01 17:21:00,27.5,18.3,30.29,North,0,6.0,8.2,68,0.00,,,0.00,WUHU216HW,2013-03-01 23:21:00,
2013-03-01 17:26:00,27.5,17.9,30.29,North,0,5.1,7.6,67,0.00,,,0.00,WUHU216HW,2013-03-01 23:26:00,
2013-03-01 17:31:00,27.3,17.7,30.29,North,0,4.2,8.0,67,0.00,,,0.00,WUHU216HW,2013-03-01 23:31:00,
2013-03-01 17:37:00,27.3,17.7,30.29,North,0,0.0,8.0,68,0.00,,,0.00,WUHU216HW,2013-03-01 23:37:00,
2013-03-01 17:42:00,27.1,17.9,30.30,NNE,23,0.0,5.5,68,0.00,,,0.00,WUHU216HW,2013-03-01 23:42:00,
2013-03-01 17:47:00,27.1,17.9,30.29,NNE,23,0.0,5.5,68,0.00,,,0.00,WUHU216HW,2013-03-01 23:47:00,
2013-03-01 17:52:00,26.9,17.7,30.30,North,0,0.2,7.8,68,0.00,,,0.00,WUHU216HW,2013-03-01 23:52:00,
2013-03-01 17:57:00,26.7,17.6,30.30,North,0,2.9,7.8,68,0.00,,,0.00,WUHU216HW,2013-03-01 23:57:00,
2013-03-01 18:02:00,26.6,17.7,30.30,NNE,23,2.6,6.2,69,0.00,,,0.00,WUHU216HW,2013-03-02 00:02:00,
2013-03-01 18:07:00,26.4,17.6,30.29,NNE,23,0.0,3.8,69,0.00,,,0.00,WUHU216HW,2013-03-02 00:07:00,
2013-03-01 18:12:00,26.4,17.6,30.30,NNW,338,2.4,5.3,69,0.00,,,0.00,WUHU216HW,2013-03-02 00:12:00,
2013-03-01 18:17:00,26.2,17.4,30.30,North,0,7.6,7.6,69,0.00,,,0.00,WUHU216HW,2013-03-02 00:17:00,
2013-03-01 18:22:00,26.2,17.4,30.30,North,0,3.8,7.6,70,0.00,,,0.00,WUHU216HW,2013-03-02 00:22:00,
2013-03-01 18:27:00,26.2,17.4,30.30,NNE,23,0.0,5.5,70,0.00,,,0.00,WUHU216HW,2013-03-02 00:27:00,
2013-03-01 18:32:00,26.2,17.4,30.30,North,0,0.0,3.8,70,0.00,,,0.00,WUHU216HW,2013-03-02 00:32:00,
2013-03-01 18:37:00,26.0,17.6,30.30,NNE,23,0.0,3.8,70,0.00,,,0.00,WUHU216HW,2013-03-02 00:37:00,
2013-03-01 18:42:00,25.8,17.4,30.31,NNE,23,0.4,4.9,70,0.00,,,0.00,WUHU216HW,2013-03-02 00:42:00,
2013-03-01 18:47:00,25.8,17.4,30.30,NNE,23,0.2,4.9,70,0.00,,,0.00,WUHU216HW,2013-03-02 00:47:00,
2013-03-01 18:52:00,25.7,17.2,30.31,North,0,0.0,0.4,70,0.00,,,0.00,WUHU216HW,2013-03-02 00:52:00,
2013-03-01 18:57:00,25.5,17.3,30.31,NNE,23,0.0,4.4,71,0.00,,,0.00,WUHU216HW,2013-03-02 00:57:00,
2013-03-01 19:03:00,25.5,17.3,30.31,North,0,0.0,4.4,71,0.00,,,0.00,WUHU216HW,2013-03-02 01:03:00,
2013-03-01 19:08:00,25.3,17.2,30.31,North,0,0.0,1.3,71,0.00,,,0.00,WUHU216HW,2013-03-02 01:08:00,
2013-03-01 19:13:00,25.3,17.2,30.31,North,0,2.9,2.9,72,0.00,,,0.00,WUHU216HW,2013-03-02 01:13:00,
2013-03-01 19:18:00,25.3,17.2,30.31,North,0,0.0,2.9,72,0.00,,,0.00,WUHU216HW,2013-03-02 01:18:00,
2013-03-01 19:23:00,25.3,17.5,30.32,NNE,23,2.2,5.1,72,0.00,,,0.00,WUHU216HW,2013-03-02 01:23:00,
2013-03-01 19:28:00,25.3,17.5,30.31,North,0,4.9,5.1,72,0.00,,,0.00,WUHU216HW,2013-03-02 01:28:00,
2013-03-01 19:33:00,25.3,17.5,30.31,North,0,3.1,4.9,72,0.00,,,0.00,WUHU216HW,2013-03-02 01:33:00,
2013-03-01 19:38:00,25.1,17.3,30.31,North,0,0.0,4.9,72,0.00,,,0.00,WUHU216HW,2013-03-02 01:38:00,
2013-03-01 19:43:00,25.1,17.3,30.31,North,0,1.5,3.1,72,0.00,,,0.00,WUHU216HW,2013-03-02 01:43:00,
2013-03-01 19:48:00,24.9,17.1,30.31,North,0,2.0,2.0,72,0.00,,,0.00,WUHU216HW,2013-03-02 01:48:00,
2013-03-01 19:53:00,24.6,16.8,30.31,North,0,0.0,2.0,72,0.00,,,0.00,WUHU216HW,2013-03-02 01:53:00,
2013-03-01 19:58:00,24.6,16.8,30.31,North,0,0.0,2.0,72,0.00,,,0.00,WUHU216HW,2013-03-02 01:58:00,
2013-03-01 20:03:00,24.4,16.6,30.31,North,0,0.0,0.0,72,0.00,,,0.00,WUHU216HW,2013-03-02 02:03:00,
2013-03-01 20:08:00,24.4,16.6,30.31,North,0,0.0,0.0,72,0.00,,,0.00,WUHU216HW,2013-03-02 02:08:00,
2013-03-01 20:13:00,24.0,16.6,30.31,NNE,23,0.0,0.0,73,0.00,,,0.00,WUHU216HW,2013-03-02 02:13:00,
2013-03-01 20:18:00,23.9,16.4,30.32,NNE,23,0.0,0.0,73,0.00,,,0.00,WUHU216HW,2013-03-02 02:18:00,
2013-03-01 20:23:00,23.7,16.3,30.32,NNE,23,0.0,0.0,73,0.00,,,0.00,WUHU216HW,2013-03-02 02:23:00,
2013-03-01 20:29:00,23.3,15.9,30.32,NNE,23,0.0,0.0,73,0.00,,,0.00,WUHU216HW,2013-03-02 02:29:00,
2013-03-01 20:34:00,23.1,15.8,30.32,NNE,23,0.0,0.0,73,0.00,,,0.00,WUHU216HW,2013-03-02 02:34:00,
2013-03-01 20:39:00,22.8,15.7,30.32,NNE,23,0.0,0.0,74,0.00,,,0.00,WUHU216HW,2013-03-02 02:39:00,
2013-03-01 20:44:00,22.6,15.5,30.32,NNE,23,0.0,0.0,74,0.00,,,0.00,WUHU216HW,2013-03-02 02:44:00,
2013-03-01 20:49:00,22.2,15.2,30.32,NNE,23,0.0,0.0,74,0.00,,,0.00,WUHU216HW,2013-03-02 02:49:00,
2013-03-01 20:54:00,22.2,15.2,30.32,NNE,23,0.0,0.0,74,0.00,,,0.00,WUHU216HW,2013-03-02 02:54:00,
2013-03-01 20:59:00,22.1,15.0,30.32,NNE,23,0.0,0.0,74,0.00,,,0.00,WUHU216HW,2013-03-02 02:59:00,
2013-03-01 21:04:00,21.9,14.8,30.32,NNE,23,0.0,0.0,74,0.00,,,0.00,WUHU216HW,2013-03-02 03:04:00,
2013-03-01 21:09:00,21.7,14.9,30.32,NNE,23,0.0,0.0,75,0.00,,,0.00,WUHU216HW,2013-03-02 03:09:00,
2013-03-01 21:14:00,21.3,14.6,30.32,NNE,23,0.0,0.0,75,0.00,,,0.00,WUHU216HW,2013-03-02 03:14:00,
2013-03-01 21:19:00,21.3,14.6,30.32,NNE,23,0.0,0.0,75,0.00,,,0.00,WUHU216HW,2013-03-02 03:19:00,
2013-03-01 21:24:00,21.2,14.4,30.32,NNE,23,0.0,0.0,76,0.00,,,0.00,WUHU216HW,2013-03-02 03:24:00,
2013-03-01 21:29:00,21.0,14.5,30.33,NNE,23,0.0,0.0,76,0.00,,,0.00,WUHU216HW,2013-03-02 03:29:00,
2013-03-01 21:34:00,20.8,14.3,30.32,NNE,23,0.0,0.0,76,0.00,,,0.00,WUHU216HW,2013-03-02 03:34:00,
2013-03-01 21:39:00,20.8,14.3,30.32,NNE,23,0.0,0.0,76,0.00,,,0.00,WUHU216HW,2013-03-02 03:39:00,
2013-03-01 21:44:00,20.6,14.2,30.32,NNE,23,0.0,0.0,76,0.00,,,0.00,WUHU216HW,2013-03-02 03:44:00,
2013-03-01 21:49:00,20.4,14.0,30.33,NNE,23,0.0,0.0,77,0.00,,,0.00,WUHU216HW,2013-03-02 03:49:00,
2013-03-01 21:55:00,20.1,13.9,30.33,NNE,23,0.0,0.0,77,0.00,,,0.00,WUHU216HW,2013-03-02 03:55:00,
2013-03-01 22:00:00,19.9,13.8,30.33,NNE,23,0.0,0.0,77,0.00,,,0.00,WUHU216HW,2013-03-02 04:00:00,
2013-03-01 22:05:00,19.9,13.8,30.33,NNE,23,0.0,0.0,77,0.00,,,0.00,WUHU216HW,2013-03-02 04:05:00,
2013-03-01 22:10:00,19.7,13.6,30.33,NNE,23,0.0,0.0,77,0.00,,,0.00,WUHU216HW,2013-03-02 04:10:00,
2013-03-01 22:15:00,19.5,13.4,30.33,NNE,23,0.0,0.0,77,0.00,,,0.00,WUHU216HW,2013-03-02 04:15:00,
2013-03-01 22:20:00,19.2,13.0,30.33,NNE,23,0.0,0.0,77,0.00,,,0.00,WUHU216HW,2013-03-02 04:20:00,
2013-03-01 22:25:00,19.0,12.9,30.33,NNE,23,0.0,0.0,77,0.00,,,0.00,WUHU216HW,2013-03-02 04:25:00,
2013-03-01 22:30:00,18.6,12.8,30.33,NNE,23,0.0,0.0,78,0.00,,,0.00,WUHU216HW,2013-03-02 04:30:00,
2013-03-01 22:35:00,18.6,12.8,30.33,NNE,23,0.0,0.0,78,0.00,,,0.00,WUHU216HW,2013-03-02 04:35:00,
2013-03-01 22:40:00,18.3,12.5,30.33,NNE,23,0.0,0.0,78,0.00,,,0.00,WUHU216HW,2013-03-02 04:40:00,
2013-03-01 22:45:00,18.1,12.3,30.33,NNE,23,0.0,0.0,78,0.00,,,0.00,WUHU216HW,2013-03-02 04:45:00,
2013-03-01 22:50:00,18.1,12.3,30.33,NNE,23,0.0,0.0,78,0.00,,,0.00,WUHU216HW,2013-03-02 04:50:00,
2013-03-01 22:55:00,17.7,11.9,30.33,NNE,23,0.0,0.0,78,0.00,,,0.00,WUHU216HW,2013-03-02 04:55:00,
2013-03-01 23:00:00,17.6,11.8,30.33,NNE,23,0.0,0.0,78,0.00,,,0.00,WUHU216HW,2013-03-02 05:00:00,
2013-03-01 23:01:00,17.6,11.8,30.33,NNE,23,0.0,0.0,78,0.00,,,0.00,WUHU216HW,2013-03-02 05:01:00,
2013-03-01 23:06:00,17.2,11.4,30.33,NNE,23,0.0,0.0,78,0.00,,,0.00,WUHU216HW,2013-03-02 05:06:00,
2013-03-01 23:10:00,17.0,11.3,30.33,NNE,23,0.0,0.0,78,0.00,,,0.00,WUHU216HW,2013-03-02 05:10:00,
2013-03-01 23:16:00,16.8,11.1,30.32,NNE,23,0.0,0.0,78,0.00,,,0.00,WUHU216HW,2013-03-02 05:16:00,
2013-03-01 23:21:00,16.7,10.9,30.32,NNE,23,0.0,0.0,78,0.00,,,0.00,WUHU216HW,2013-03-02 05:21:00,
2013-03-01 23:26:00,16.5,11.1,30.32,NNE,23,0.0,0.0,79,0.00,,,0.00,WUHU216HW,2013-03-02 05:26:00,
2013-03-01 23:31:00,16.3,10.9,30.33,NNE,23,0.0,0.0,79,0.00,,,0.00,WUHU216HW,2013-03-02 05:31:00,
2013-03-01 23:36:00,15.9,10.6,30.33,NNE,23,0.0,0.0,79,0.00,,,0.00,WUHU216HW,2013-03-02 05:36:00,
2013-03-01 23:41:00,15.9,10.6,30.32,NNE,23,0.0,0.0,79,0.00,,,0.00,WUHU216HW,2013-03-02 05:41:00,
2013-03-01 23:46:00,15.6,10.2,30.32,NNE,23,0.0,0.0,79,0.00,,,0.00,WUHU216HW,2013-03-02 05:46:00,
2013-03-01 23:51:00,15.6,10.2,30.33,NNE,23,0.0,0.0,80,0.00,,,0.00,WUHU216HW,2013-03-02 05:51:00,
2013-03-01 23:56:00,15.4,10.4,30.32,NNE,23,0.0,0.0,80,0.00,,,0.00,WUHU216HW,2013-03-02 05:56:00,